Terug naar catalogus

STARLINK-30182

ActiefCommunicatieVLEO
NORAD 57412·PAYLOAD·🇺🇸 United States

Gelanceerd Jul 20, 2023 vanaf Vandenberg Space Force Base

Loading…

Volgende Passages (komende 24 uur)

TLE

VersSource: CelesTrak SupGP

Epoch: Sep 15, 2026, 02:00 UTC

1 57412C 23102J   26258.08381944  .00768430  00000+0  45000-2 0  2583
2 57412  42.9995 251.2789 0001663 276.7802  83.9105 15.76977575    17

Volg STARLINK-30182 in realtime met AllMySat

Download on the App Store